Home   Weather   Monaco   Past weeks
Flag for Monaco

Past Weather in Monaco, Monaco — Yesterday and Last 2 Weeks

Now
61 °F

Scattered clouds.


Feels Like: 61 °F
Forecast: 60 / 50 °F
Wind: 12 mph from South

Location: Nice Airport

Current Time: Apr 24, 2019 at 6:05:56 pm

Latest Report: Apr 24, 2019 at 5:30 pm


Visibility: N/A

Pressure: 29.98 "Hg

Humidity: 88%

Dew Point: 57 °F

Location of MonacoLocation

Past Weather in Monaco — Graph

°F

Monaco Temperature Yesterday

Maximum temperature yesterday: 64 °F (at 2:30 pm)
Minimum temperature yesterday: 55 °F (at 10:00 am)
Average temperature yesterday: 58 °F

High & Low Weather Summary for the Past Weeks

 TemperatureHumidityPressure
High70 °F (Apr 22, 4:30 am)100% (Apr 23, 9:30 pm)30.30 "Hg (Apr 23, 9:30 pm)
Low46 °F (Apr 15, 5:30 am)29% (Apr 22, 4:30 am)29.50 "Hg (Apr 23, 5:00 am)
Average59 °F68%29.94 "Hg
* Reported Apr 9 4:00 pm — Apr 24 4:30 pm, Monaco. Weather by CustomWeather, © 2019

Note: Actual official high and low records may vary slightly from our data, if they occured in-between our weather recording intervals... More about our weather records

Advertising

Monaco Weather History for the Previous 24 Hours

Scroll right to see more
 ConditionsComfort  
Time TempWeatherWind HumidityBarometerVisibility
4:30 pm
Wed, Apr 24
59 °FBroken clouds.8 mph94%29.95 "HgN/A
4:00 pm59 °FPartly sunny.7 mph88%29.95 "HgN/A
3:30 pm57 °FLight rain. Broken clouds.13 mph94%29.95 "HgN/A
3:00 pm57 °FLight rain. Fog.15 mph94%29.95 "Hg2 mi
2:30 pm57 °FRain. Fog.17 mph94%29.95 "Hg1 mi
2:00 pm57 °FLight rain. Partly sunny.9 mph94%29.95 "Hg6 mi
1:30 pm57 °FLight rain. Partly sunny.10 mph94%29.95 "Hg4 mi
1:00 pm57 °FLight rain. Partly sunny.12 mph94%29.95 "Hg4 mi
12:30 pm57 °FLight rain. Partly sunny.10 mph94%29.95 "Hg3 mi
12:00 pm57 °FLight rain. Partly sunny.7 mph94%29.92 "Hg4 mi
11:30 am57 °FLight rain. Fog.7 mph94%29.92 "Hg3 mi
11:00 am57 °FRain. Broken clouds.7 mph94%29.92 "Hg2 mi
10:30 am57 °FLight rain. Broken clouds.9 mph94%29.89 "Hg4 mi
10:00 am57 °FLight rain. Partly sunny.14 mph94%29.89 "Hg4 mi
9:36 am59 °FRain. Fog.16 mph94%29.86 "Hg2 mi
9:00 am59 °FLight rain. Partly sunny.13 mph94%29.86 "Hg2 mi
8:30 am59 °FLight rain. Partly sunny.13 mph94%29.83 "Hg2 mi
8:00 am59 °FLight rain. Broken clouds.12 mph94%29.83 "Hg3 mi
7:30 am59 °FBroken clouds.8 mph94%29.83 "Hg4 mi
7:00 am59 °FBroken clouds.10 mph94%29.83 "Hg4 mi
6:30 am59 °FPartly cloudy.8 mph94%29.80 "Hg4 mi
6:00 am57 °FPartly cloudy.3 mph94%29.80 "HgN/A
5:30 am57 °FPartly cloudy.6 mph88%29.80 "HgN/A
5:00 am57 °FPartly cloudy.3 mph88%29.80 "HgN/A
4:30 am57 °FPartly cloudy.3 mph88%29.80 "HgN/A
4:00 am57 °FLight rain. Passing clouds.3 mph88%29.80 "HgN/A
3:30 am57 °FPassing clouds.5 mph88%29.77 "HgN/A
3:00 am57 °FPassing clouds.5 mph88%29.77 "HgN/A
2:30 am57 °FPassing clouds.6 mph88%29.77 "HgN/A
2:00 am57 °FPassing clouds.3 mph88%29.77 "HgN/A
1:30 am57 °FLight rain. Partly cloudy.5 mph88%29.74 "Hg5 mi
1:00 am57 °FPartly cloudy.3 mph88%29.74 "HgN/A
12:30 am57 °FPassing clouds.5 mph88%29.74 "HgN/A
12:00 am57 °FPassing clouds.7 mph88%29.71 "HgN/A
11:00 pm
Tue, Apr 23
57 °FPassing clouds.9 mph88%29.71 "HgN/A
10:30 pm55 °FLight rain. Passing clouds.10 mph100%29.68 "HgN/A
10:00 pm55 °FLight rain. Passing clouds.9 mph100%29.68 "Hg5 mi
9:30 pm55 °FRain. Partly cloudy.9 mph100%29.65 "Hg3 mi
9:00 pm57 °FRain. Passing clouds.7 mph94%29.65 "Hg2 mi
8:30 pm57 °FRain. Passing clouds.5 mph94%29.62 "Hg2 mi
8:00 pm57 °FRain. Broken clouds.6 mph94%29.59 "Hg2 mi
7:30 pm57 °FRain. Cloudy.6 mph94%29.59 "Hg2 mi
7:00 pm57 °FRain. Cloudy.7 mph94%29.56 "Hg2 mi
6:30 pm57 °FRain. Cloudy.6 mph94%29.56 "Hg2 mi
6:00 pm57 °FRain. Cloudy.6 mph88%29.56 "Hg1 mi
Weather by CustomWeather, © 2019

See weather overview